This is the latest recevied weather packets stored in our database for station/object VA3WWD-2. If no packets are shown the sender has not sent any weather packets the latest 10 day(s).
| Time | Temp. | Humidity | Pressure | Rain* | Wind** | Luminosity | Snow |
|---|---|---|---|---|---|---|---|
| 1778088698 | 5.56° C | 44% | - | 0 mm | 0 m/s | - | - |
| 1778088400 | 5.56° C | 47% | - | 0 mm | 0 m/s | - | - |
| 1778087801 | 5° C | 46% | - | 0 mm | 0 m/s | - | - |
| 1778087503 | 3.89° C | 48% | - | 0 mm | 0 m/s | - | - |
| 1778087202 | 4.44° C | 49% | - | 0 mm | 0 m/s | - | - |
| 1778086606 | 3.89° C | 48% | - | 0 mm | 0 m/s | - | - |
| 1778086305 | 3.89° C | 48% | - | 0 mm | 0 m/s | - | - |
| 1778086008 | 4.44° C | 49% | - | 0 mm | 0 m/s | - | - |
| 1778085709 | 3.33° C | 52% | - | 0 mm | 0 m/s | - | - |
| 1778085110 | 3.33° C | 50% | - | 0 mm | 0 m/s | - | - |
| 1778084509 | 3.89° C | 54% | - | 0 mm | 0 m/s | - | - |
| 1778084211 | 2.78° C | 53% | - | 0 mm | 0 m/s | - | - |
| 1778083913 | 3.33° C | 57% | - | 0 mm | 0 m/s | - | - |
| 1778083613 | 3.33° C | 57% | - | 0 mm | 0 m/s | - | - |
| 1778083315 | 2.78° C | 58% | - | 0 mm | 0 m/s | - | - |
| 1778083017 | 2.78° C | 57% | - | 0 mm | 0 m/s | - | - |
| 1778082716 | 2.78° C | 58% | - | 0 mm | 0 m/s | - | - |
| 1778082418 | 3.33° C | 60% | - | 0 mm | 0 m/s | - | - |
| 1778082120 | 3.33° C | 58% | - | 0 mm | 0 m/s | - | - |
| 1778081521 | 3.33° C | 59% | - | 0 mm | 0 m/s | - | - |
| 1778080922 | 2.78° C | 61% | - | 0 mm | 0 m/s | - | - |
| 1778080025 | 2.22° C | 62% | - | 0 mm | 0 m/s | - | - |
| 1778079727 | 2.22° C | 62% | - | 0 mm | 0 m/s | - | - |
| 1778079429 | 3.33° C | 61% | - | 0 mm | 0 m/s | - | - |
| 1778079128 | 3.33° C | 63% | - | 0 mm | 0 m/s | - | - |
* Rain latest hour (hover to see other rain measurements)
** Current wind speed in m/s (hover to see current wind gust speed)